Flag for Switzerland Weather past 2 weeks in Pratteln, Basel-Land, Switzerland

Now
61 °F

Sunny.


Feels Like: 61 °F
Forecast: 40 / 59 °F
Wind: 3 mph from North

Location: Bale-Mulhouse

Current Time: Oct 25, 2014 at 4:47:25 PM

Latest Report: Oct 25, 2014 at 4:00 PM


Visibility: 10 mi

Pressure: 30.15 "Hg

Humidity: 68%

Dew point: 50 °F

Location of PrattelnLocation

Historic Weather in Pratteln — Graph

°F

Pratteln temperature yesterday

Maximum temperature yesterday: 55 °F (at 4:00 PM)
Minimum temperature yesterday: 34 °F (at 5:00 AM)
Average temperature yesterday: 45 °F

Past Weeks' High & Low Weather Summary

 TemperatureHumidityPressure
High75 °F (Oct 18, 4:30 PM)100% (Oct 11, 4:00 AM)30.30 "Hg (Oct 11, 4:00 AM)
Low34 °F (Oct 24, 5:00 AM)44% (Oct 23, 3:30 PM)29.74 "Hg (Oct 13, 5:00 AM)
Average57 °F85%30.02 "Hg
* Reported Oct 10 3:00 PM — Oct 25 3:30 PM, Pratteln, Weather by CustomWeather, © 2014

Note: Actual official high and low records may vary slightly from our data, if they occured in-between our weather recording intervals... More about our weather records

Advertising

Pratteln weather history for previous 24 hours

 ConditionsComfort  
Time TempWeatherWind HumidityBarometerVisibility
3:30 PM
Oct 25
61 °FPartly sunny.3 mph63%30.12 "HgN/A
3:00 PM61 °FPartly sunny.1 mph63%30.12 "HgN/A
2:30 PM59 °FPassing clouds.3 mph68%30.12 "HgN/A
2:00 PM59 °FPassing clouds.3 mph68%30.15 "HgN/A
1:30 PM59 °FScattered clouds.3 mph68%30.15 "HgN/A
1:00 PM55 °FSunny.2 mph77%30.15 "Hg10 mi
12:30 PM54 °FPartly sunny.3 mph82%30.15 "HgN/A
12:00 PM54 °FBroken clouds.5 mph82%30.15 "HgN/A
11:30 AM52 °FBroken clouds.7 mph82%30.15 "Hg6 mi
11:00 AM50 °FLight rain. Broken clouds.5 mph88%30.15 "Hg5 mi
10:30 AM50 °FLight rain. Broken clouds.5 mph88%30.15 "Hg4 mi
10:00 AM50 °FLight rain. Broken clouds.2 mph82%30.15 "Hg6 mi
9:30 AM50 °FSunny.2 mph82%30.15 "Hg10 mi
9:00 AM48 °FClear.2 mph87%30.12 "Hg10 mi
8:30 AM48 °FClear.2 mph87%30.12 "Hg10 mi
8:00 AM48 °FClear.3 mph87%30.12 "Hg10 mi
7:30 AM48 °FClear.3 mph87%30.09 "Hg10 mi
7:00 AM48 °FClear.3 mph87%30.09 "Hg10 mi
6:30 AM48 °FClear.3 mph87%30.09 "Hg10 mi
6:00 AM48 °FClear.1 mph82%30.09 "Hg10 mi
5:30 AM48 °FClear.3 mph82%30.09 "Hg10 mi
5:00 AM48 °FClear.3 mph87%30.09 "Hg10 mi
4:30 AM48 °FClear.3 mph82%30.09 "Hg10 mi
4:00 AM48 °FClear.5 mph87%30.09 "HgN/A
3:30 AM48 °FClear.3 mph82%30.09 "HgN/A
3:00 AM48 °FClear.3 mph82%30.09 "HgN/A
2:30 AM48 °FClear.3 mph82%30.09 "HgN/A
2:00 AM48 °FClear.3 mph82%30.09 "HgN/A
1:30 AM48 °FClear.5 mph82%30.09 "HgN/A
1:00 AM48 °FClear.2 mph82%30.09 "HgN/A
12:30 AM48 °FClear.2 mph82%30.09 "HgN/A
12:00 AM48 °FPassing clouds.3 mph82%30.09 "HgN/A
11:30 PM
Oct 24
50 °FPassing clouds.5 mph76%30.12 "HgN/A
11:00 PM50 °FClear.2 mph76%30.12 "Hg10 mi
10:30 PM50 °FPassing clouds.3 mph76%30.12 "HgN/A
10:00 PM50 °FPassing clouds.3 mph76%30.12 "HgN/A
9:30 PM50 °FClear.8 mph76%30.09 "Hg10 mi
9:00 PM48 °FClear.7 mph82%30.12 "Hg10 mi
8:30 PM48 °FClear.3 mph76%30.12 "Hg10 mi
8:00 PM50 °FClear.3 mph76%30.12 "Hg10 mi
7:30 PM50 °FClear.6 mph76%30.12 "Hg10 mi
7:00 PM52 °FSunny.8 mph72%30.09 "Hg10 mi
6:30 PM52 °FSunny.2 mph72%30.12 "Hg10 mi
6:00 PM54 °FSunny.8 mph67%30.12 "Hg10 mi
5:30 PM54 °FPassing clouds.9 mph67%30.12 "HgN/A
5:00 PM55 °FPassing clouds.8 mph63%30.12 "HgN/A
4:30 PM55 °FScattered clouds.12 mph63%30.12 "HgN/A
4:00 PM55 °FPassing clouds.12 mph63%30.12 "HgN/A
Weather by CustomWeather, © 2014

See weather overviewHow to use our weather pages